MyTimes logo

TIMES

Webb Imagery

16/02/2003
Cowes Classic
500m Swim / 4.0km Run

(Click on competitor name to view personalised results)

Name
Race #
Category
Team Name
Time
(h:mm:ss)
Avg Speed
km/hr
OAll
Place
Cat
Place
ROBERTS Sean#642Team Male0:19:43 13.7 11
MC KENZIE Craig#96Senior Male0:19:46 13.7 21
BENTLEY Tim#81Senior Male0:19:54 13.6 32
LAVENDER Daniel#637Team Male0:20:15 13.3 42
BIRCH Andrew#206Junior Male0:21:17 12.7 51
RISELEY Peter#11Senior Male0:21:20 12.7 63
VELLIN Marc#7Senior Male0:21:42 12.4 74
VAN WISSE John#115Senior Male0:21:57 12.3 85
EVANS Brad#29Senior Male0:22:20 12.1 96
NORMAN Jeffrey#649Team Male0:23:08 11.7 103
REID Penny#34Senior Female0:23:30 11.5 111
CLARKSON Mack#19Senior Male0:23:34 11.5 127
HENRIKSE Dean#16Senior Male0:23:39 11.4 138
FLEISNER Rob#16240-49 Male0:23:43 11.4 141
COOK David#607Team Male0:23:49 11.3 154
SONTAG Mark#89Senior Male0:23:50 11.3 169
EVERETT Nic#88Senior Male0:23:51 11.3 1710
ACKLAND Nathan#632Team Male0:23:54 11.3 185
JALANDO-ON Rio#602Team Male0:23:55 11.3 196
MC HENRY David#198Junior Male0:24:06 11.2 202
ARMSTRONG Graeme#21850+ Male0:24:09 11.2 211
GRAHAME Sarah#209Junior Female0:24:10 11.2 221
MOUNSEY Mark#18040-49 Male0:24:11 11.2 232
MURLEY Phil#605Team Mixed0:24:17 11.1 241
DALLINGER Chris#113Senior Male0:24:18 11.1 2511
BLYTHE Kathy#614Team Mixed0:24:39 11 262
ZDANOWICZ Rob#68Senior Male0:24:42 10.9 2712
HANLEY Philip#21050+ Male0:24:45 10.9 282
SPOTTISWOOD James#78Senior Male0:24:57 10.8 2913
PANBIANCO Dean#202Junior Male0:25:00 10.8 303
ROLLAND Thierry#26Senior Male0:25:04 10.8 3114
REID Jason#104Senior Male0:25:12 10.7 3215
ANDERSON Helen#635Team Mixed0:25:13 10.7 333
CURRY Matt#59Senior Male0:25:24 10.6 3416
FRANILLAN Brett#108Senior Male0:25:27 10.6 3517
JOHNSON Glen#21140-49 Male0:25:28 10.6 363
ROBERTSON Matthew#184Junior Male0:25:28 10.6 374
JALANDO-ON Mark#603Team Mixed0:25:34 10.6 384
WALKER David#97Senior Male0:25:37 10.5 3918
REID Karina#37Senior Female0:25:38 10.5 402
SIMONDS Stephanie#662Team Mixed0:25:40 10.5 415
PERRY Chris#174Junior Male0:25:40 10.5 425
LOCK Paul#116Senior Male0:25:42 10.5 4319
RITTER Andrew#28Senior Male0:25:43 10.5 4420
MAIDMENT-WOOD Karen#16540-49 Female0:25:43 10.5 451
WILLIAMS Kellie#31Senior Female0:25:44 10.5 463
MAYERS Stuart#1Senior Male0:25:49 10.5 4721
ANNEAR Steve#606Team Mixed0:25:54 10.4 486
BURTON Bradley#652Team Mixed0:26:06 10.3 497
WARNER Don#18150+ Male0:26:06 10.3 503
LEGGE Andrew#27Senior Male0:26:07 10.3 5122
KEATING Mark#650Team Male0:26:07 10.3 527
MONOGHAN Matt#109Senior Male0:26:10 10.3 5323
MC HENRY Simon#628Team Male0:26:12 10.3 548
MARSHALL Luke#5Senior Male0:26:16 10.3 5524
MC GARRITY Craig#87Senior Male0:26:17 10.3 5625
MC DOUGALL Andrew#4Senior Male0:26:18 10.3 5726
LEWIS Robert#10Senior Male0:26:24 10.2 5827
O'SHEA Simon#17940-49 Male0:26:24 10.2 594
BEHRSIN John#20840-49 Male0:26:24 10.2 605
BILLING Mike#77Senior Male0:26:25 10.2 6128
MC ALLISTER Danny#110Senior Male0:26:27 10.2 6229
SCHEPEMAKER Nick#62Senior Male0:26:29 10.2 6330
SORENSEN Michael#18840-49 Male0:26:29 10.2 646
CLARKE Alecia#625Team Mixed0:26:32 10.2 658
PIROUET Nathan#65Senior Male0:26:33 10.2 6631
SHERRARD Philip#658Team Male0:26:33 10.2 679
RODGERS Andrew#14Senior Male0:26:34 10.2 6832
BARRY Lawri#629Team Mixed0:26:36 10.2 699
MC AULEY Susan#634Team Mixed0:26:38 10.1 7010
FERGUSON Andrew#53Senior Male0:26:43 10.1 7133
WOOLLARD Carolyn#656Team Mixed0:26:43 10.1 7211
NEUBAUER Lee#647Team Male0:26:48 10.1 7310
DICKSON James#661Team Male0:26:50 10.1 7411
WALKER Peter#70Senior Male0:26:58 10 7534
ROBERTS Terry#636Team Mixed0:26:59 10 7612
COFFEY Bongo#8Senior Male0:27:02 10 7735
CLINTON Bradley#114Senior Male0:27:11 9.9 7836
CHURCHILL Brodie#610Team Mixed0:27:15 9.9 7913
KILDAY Terry#16450+ Male0:27:16 9.9 804
NEVINS Sue#20740-49 Female0:27:19 9.9 812
FLEISNER Paul#19050+ Male0:27:21 9.9 825
MOREHEAD Craven#9Senior Male0:27:25 9.8 8337
CLARKE Rob#82Senior Male0:27:27 9.8 8438
MAUGER Yvonne#616Team Female0:27:28 9.8 851
O'SHEA Esther#601Team Female0:27:29 9.8 862
FALCKE Cass#623Team Mixed0:27:31 9.8 8714
MARTIN Zoe#55Senior Female0:27:35 9.8 884
O'CONNELL Sarah#46Senior Female0:27:39 9.8 895
RIELLY Debbie#61Senior Female0:27:41 9.8 906
BREWSTER N#22040-49 Male0:27:41 9.8 917
DAVIE Warren#204Junior Male0:27:43 9.7 926
BOURKE Gerard#173Junior Male0:27:44 9.7 937
DAVEY Benjamin#3Senior Male0:27:45 9.7 9439
BEHRSIN Kristina#648Team Female0:27:45 9.7 953
HUGHES Jed#659Team Mixed0:27:45 9.7 9615
WILDISH Rob#13Senior Male0:27:52 9.7 9740
GAUL Emma#32Senior Female0:27:52 9.7 987
HAGAN Oliver#620Team Male0:27:52 9.7 9912
BORG Sharon#633Team Mixed0:27:53 9.7 10016
SMITH John#25Senior Male0:27:54 9.7 10141
CHURCHILL Lachlan#20Senior Male0:27:58 9.7 10242
WILKINSON Emily#44Senior Female0:27:58 9.7 1038
EVANS Bree#40Senior Female0:27:59 9.6 1049
WHITE Kerry#39Senior Female0:28:00 9.6 10510
WATERS David#609Team Mixed0:28:00 9.6 10617
ROSSI Ann#72Senior Female0:28:05 9.6 10711
SHADBOLT Ian#19240-49 Male0:28:05 9.6 1088
DAVISON Rosamund#47Senior Female0:28:09 9.6 10912
CARIAS Jo#645Team Male0:28:11 9.6 11013
MANGIONI Chris#17Senior Male0:28:12 9.6 11143
MC GEOCH Laura#76Senior Female0:28:17 9.5 11213
HENDERSON Chloe#167Junior Female0:28:19 9.5 1132
NICHOLSON Ron#646Team Male0:28:21 9.5 11414
MUIR Ian#22150+ Male0:28:24 9.5 1156
LAWRENCE Shane#85Senior Male0:28:25 9.5 11644
O'RYAN Mick#17250+ Male0:28:35 9.4 1177
FERRIES Cody#219Junior Male0:28:40 9.4 1188
CARTER Lachlan#212Junior Male0:28:41 9.4 1199
FUERY Steve#101Senior Male0:28:49 9.4 12045
SMITH Dennis#22250+ Male0:28:50 9.4 1218
WHELLER Laurie#16650+ Male0:28:56 9.3 1229
CARTER Dean#17850+ Male0:28:56 9.3 12310
KEADY Richard#21350+ Male0:28:56 9.3 12411
LORD Michael#641Team Male0:28:57 9.3 12515
BROWN Matthew#112Senior Male0:28:59 9.3 12646
STUBBS Gavin#655Team Male0:29:01 9.3 12716
KOLAC Paul#621Team Male0:29:04 9.3 12817
DAVIES Julie-Ann#83Senior Female0:29:05 9.3 12914
MC CARTHY Barry#30Senior Male0:29:08 9.3 13047
MAC CARTHY Kim#18250+ Male0:29:12 9.2 13112
JOHNSTON Brian#644Team Male0:29:13 9.2 13218
MANNING John#91Senior Male0:29:14 9.2 13348
DICKSON Jack#215Junior Male0:29:15 9.2 13410
RODGERS Adam#111Senior Male0:29:16 9.2 13549
THURGOOD Neville#22Senior Male0:29:17 9.2 13650
FIELD Cameron#18Senior Male0:29:18 9.2 13751
LINSDELL-EDWARD Catherine#660Team Mixed0:29:19 9.2 13818
MANNING Simon#639Team Male0:29:21 9.2 13919
KRUMINS Emma#622Team Mixed0:29:22 9.2 14019
MC LEISH Tania#43Senior Female0:29:23 9.2 14115
DICKSON Ron#21640-49 Male0:29:27 9.2 1429
PIROUET Darren#6Senior Male0:29:34 9.1 14352
MILLER Lisa#16940-49 Female0:29:35 9.1 1443
REID John#653Team Mixed0:29:36 9.1 14520
CARROLL Steven#90Senior Male0:29:41 9.1 14653
PAPWORTH Troy#64Senior Male0:29:42 9.1 14754
BUCKLEY Laura#36Senior Female0:29:53 9 14816
STOOPMAN Jo#79Senior Female0:29:56 9 14917
JACKSON Kendra#95Senior Female0:29:58 9 15018
ANDERSON Garry#18950+ Male0:29:58 9 15113
DAVIE Angela#17740-49 Female0:30:00 9 1524
EDWARDS Joffa#92Senior Male0:30:02 9 15355
PARKER Michael#86Senior Male0:30:08 9 15456
GIBBS Brad#193Junior Male0:30:08 9 15511
MACKAY Lynne#117Senior Female0:30:13 8.9 15619
CRAIKE Shaun#197Junior Male0:30:13 8.9 15712
SMITH Andrew#12Senior Male0:30:17 8.9 15857
CAPLE Sally#199Junior Female0:30:17 8.9 1593
DE PIAZZA Bill#618Team Male0:30:23 8.9 16020
SIGLEY Kim#54Senior Female0:30:25 8.9 16120
GRAHAM Robyn#38Senior Female0:30:28 8.9 16221
PORTCH Deane#20540-49 Male0:30:28 8.9 16310
ELVINS Mark#58Senior Male0:30:31 8.8 16458
HOLLAND Arthur#21450+ Male0:30:33 8.8 16514
CAPLE Anna#630Team Mixed0:30:40 8.8 16621
VANDER BRUGGEN Laurence#84Senior Female0:30:44 8.8 16722
VAN SANTEN Tyson#66Senior Male0:30:45 8.8 16859
PAXTON Darren#15Senior Male0:30:52 8.7 16960
SKIDMORE Peter#19450+ Male0:30:55 8.7 17015
WYNEN Kerryn#640Team Mixed0:30:57 8.7 17122
COX Bill#16140-49 Male0:31:05 8.7 17211
DALLINGER Brian#17050+ Male0:31:19 8.6 17316
TROJAN Nadia#51Senior Female0:31:23 8.6 17423
LAWTEY Shane#107Senior Male0:31:25 8.6 17561
KEPERT Meegan#33Senior Female0:31:27 8.6 17624
EGGLESTON Toby#2Senior Male0:31:34 8.6 17762
TYSOE Mark#74Senior Male0:31:39 8.5 17863
SIMMANCE Natalie#651Team Female0:31:52 8.5 1794
MARRIOTT Mary#48Senior Female0:31:54 8.5 18025
HALL Kerri#35Senior Female0:31:57 8.5 18126
MC LEOD Beth#608Team Female0:31:59 8.4 1825
CAPLE Eliza#631Team Mixed0:32:11 8.4 18323
COLLIS Dan#105Senior Male0:32:16 8.4 18464
HORNSBY Tony#103Senior Male0:32:22 8.3 18565
HARPER Karen#654Team Mixed0:32:23 8.3 18624
BREWIN Dennis#20040-49 Male0:32:24 8.3 18712
STAIOS Theo#106Senior Male0:32:39 8.3 18866
BEASLEY Jane#624Team Mixed0:32:50 8.2 18925
CANDIAN Tara#604Team Female0:32:54 8.2 1906
SKIDMORE Tim#195Junior Male0:32:55 8.2 19113
JOHNSON Alexandra#67Senior Female0:33:08 8.1 19227
THURGOOD Jordan#185Junior Male0:33:17 8.1 19314
EARLE Brendan#57Senior Male0:33:29 8.1 19467
WEIR Warren#626Team Mixed0:33:34 8 19526
GRIGG Viktoria#612Team Female0:33:45 8 1967
EVANS Paul#100Senior Male0:33:53 8 19768
ROBERTSON Debra#18340-49 Female0:33:53 8 1985
STONIER-GIBSON Christina#45Senior Female0:34:14 7.9 19928
FROST Gregory#615Team Mixed0:34:17 7.9 20027
FLARHERTY Shona#93Senior Female0:34:25 7.8 20129
RICHENS Michelle#118Senior Female0:34:30 7.8 20230
O'DONOHUE Mark#643Team Male0:34:31 7.8 20321
SEMKEN Melissa#168Junior Female0:34:38 7.8 2044
SEMKEN Kaitlin#638Team Female0:34:48 7.8 2058
SKIDMORE Matt#196Junior Male0:34:58 7.7 20615
LOWE Sally#60Senior Female0:35:32 7.6 20731
MC CASKER Daniel#63Senior Male0:35:56 7.5 20869
MILLER Claire#20340-49 Female0:35:57 7.5 2096
LEWES Jonathon#17540-49 Male0:36:12 7.5 21013
ZIMMERMAN Kirrily#41Senior Female0:36:24 7.4 21132
WRIGHT Bruce#52Senior Male0:36:40 7.4 21270
WHEELER Robert#21750+ Male0:37:18 7.2 21317
SARACHI Jiselle#17140-49 Female0:37:20 7.2 2147
AUHL Barry#98Senior Male0:37:38 7.2 21571
NEVINS Rachael#80Senior Female0:38:03 7.1 21633
WEBSTER Lisa#102Senior Female0:38:20 7 21734
KOSTER Cheryl#56Senior Female0:38:50 7 21835
CERNY Portia#69Senior Female0:39:55 6.8 21936
PECCHIARI Paula#611Team Female0:41:22 6.5 2209
BEWLEY Rikki#18750+ Female0:41:47 6.5 2211
TROJAN Lara#657Team Mixed0:43:26 6.2 22228
PETERSEN Danielle#73Senior Female0:43:43 6.2 22337
BUTLER Teresa#75Senior Female0:45:58 5.9 22438
KONTOGOURIS Earlene#19150+ Female0:47:50 5.6 2252